SAUDISAT 4 (40016 NORAD) Tracking and Keplerian Element Data

This shows tracking and keplerian element data for the satellite.

Feedback or suggestion? Click here.




ElementValue
Catalog40016
NameSAUDISAT 4
Epoch Orbit24170
Epoch Day349.54423984
Epoch Year2018
RAAN224.1366
Inclination97.7875
Eccentricity0.0047634
Argument of Perigee326.2708
Mean Anonmoly33.5473
Mean Motion14.75216386
Decay Rate1.9E-07
L11 40016U 14033G 18349.54423984 .00000019 00000-0 10184-4 0 9994
L22 40016 97.7875 224.1366 0047634 326.2708 33.5473 14.75216386241704

Live tracking and technical data element details for SAUDISAT 4 (NORAD 40016). SAUDISAT 4 can be tracked NOW for your location showing map with azimuth and elevation plus other details from your city location.

Track the satellite on the map from your city or location and see movement details for azimuth, elevation, latitude, longitude, range, height, and movement on the map or in text.







IsCatalogInMostPopularTable: catalog: 40016, numindb: 110
Update: records affected: 1



GetName: 40016 SAUDISAT 4

Hit Count: updated at: Sun, 16 Dec 2018 04:45:16 GMT